{"data":{"norad_id":45160,"epoch":"2026-09-20T01:26:15.005760Z","epoch_age_seconds":52397,"freshness":"FRESH","line1":"1 45160U 20008AF  26263.05989590  .00000524  00000+0  14636-2 0  9992","line2":"2 45160  87.8908  17.3893 0002141 110.7008 249.4349 13.10374023320772","mean_motion":13.10374023,"eccentricity":0.0002141,"inclination_deg":87.8908,"raan_deg":17.3893,"arg_perigee_deg":110.7008,"mean_anomaly_deg":249.4349,"bstar":0.0014636,"rev_number":32077,"period_min":109.89228836384,"perigee_km":1220.0853599947,"apogee_km":1223.3396155454,"semimajor_km":7599.8494877701,"source":"CELESTRAK","updated_at":"2026-09-20T09:00:44.550705Z"}}